Showing default

QIANFAN-146, 69105

Orbit data source: Space-Track

QIANFAN-146, 69105 is a Chinese payload satellite in LEO that was launched on Sun, 17 May 2026 UTC via a CHANG ZHENG 8 launch vehicle from the Wenchang Satellite Launch Center (WSC). Payload-class satellites include a variety of spacecraft equipped with specific instruments for various scientific and technological missions. These include communications satellites like Starlink; space stations such as the ISS; scientific satellites like the Hubble; Earth observation satellites from companies like Planet Labs, Umbra, and HawkEye 360; GPS; miniature CubeSats for education and research; and military/defense satellites.

Loading next visibility...
Identifier
69105, 2026-108B
Orbit
LEO
Country
Flag of CNCN / PRC
Related business
Manufacturer
SECM
Mission
Operational spacecraft
Bus & Motor
QIANFAN, Unknown motor
Mass
267 kg wet, ~267 kg dry
Launch date (UTC)
2026-05-17 (1 month ago)
Launch vehicle
CHANG ZHENG 8
Launch site
Wenchang Satellite Launch Center (WSC)
Object type
Payload
Rocket body
Debris
Shape & HBR
Unknown shape, 14.5 m
Radar Cross Section
Large (>1 m²)

Expand to show TLE details & history
Last TLE update: 21 hours ago

TLE from 21 hours ago
0 QIANFAN-146
1 69105U 26108B   26170.95831264  .00000060  00000-0  25520-4 0  9996
2 69105  89.0085  21.8969 0017582 110.5025 249.8049 14.10580384  4740
Epoch: 2026-06-19T22:59Z
TLE epoch observation values (Epoch: 2026-06-19T22:59:58.212Z)
Latitude
0.00001°
Longitude
128.72453°
Altitude
864.838 km
Speed
7.418 km/s
True Right ascension
01h 27m 35s
True Declination
0° 00' 00"
Sunlit
Object was in daylight at epoch
Visualization orbit readout
Latitude
Unknown
Longitude
Unknown
Altitude
Unknown
Speed
Unknown
Apparent Right ascension
Unknown
Apparent Declination
Unknown
Sunlit
N/A
Visualization observer readout
Local Sidereal Time
07:15:39
Azimuth
Unknown
Elevation
Unknown
Doppler factor
Unknown
Orbital elements
Apogee altitude
867.067 km
Perigee altitude
841.635 km
Semi-major axis
7,232.488 km
Eccentricity
0.00176
Inclination
89.0085°
RAAN
21.8969°
Arg. of periapsis
110.5025°
True anomaly
249.61595°
Mean anomaly
249.8049°
Eccentric anomaly
249.71041°
Mean motion
3.52867 °/min
Orbital period
102.02 mins
BSTAR
0.00002552
Loading maneuver chart data...
Computing Atmospheric mass density...
Loading historical data...
Loading historical data...
Loading historical data...
Loading historical data...
Loading historical data...
Loading historical data...
Loading historical data...

Documentation

Showing up to 5 results
|